Regional Weather Roundup
Issued by NWS

Home | Current Version | Previous Version | Graphics & Text | Print | Product List | Glossary On
Versions: 1 2 3 4 5 6 7 8 9 10 11 12 13 14 15 16 17 18 19 20 21 22 23 24 25 26 27 28 29 30 31 32 33 34 35 36 37 38 39 40 41 42 43 44 45 46 47 48 49 50
000
ASUS43 KOAX 010210
RWRNE

WEATHER ROUNDUP FOR NEBRASKA
NATIONAL WEATHER SERVICE OMAHA NE
900 PM CDT THU JUL 31 2014

NOTES: SATELLITE DATA IS BEING USED TO AUGMENT CLOUD COVER ABOVE
       12000 FEET.
       "FAIR" INDICATES FEW OR NO CLOUDS BELOW 12,000 FEET WITH NO
       SIGNIFICANT WEATHER AND/OR OBSTRUCTIONS TO VISIBILITY.

  * THESE STATIONS DO NOT REPORT WEATHER SUCH AS RAIN...SNOW OR FOG.

NEZ001>004-019>022-054>056-010300-
NEBRASKA PANHANDLE

CITY           SKY/WX    TMP DP  RH WIND       PRES   REMARKS
SCOTTSBLUFF    CLEAR     76  51  41 E7        30.15R
ALLIANCE       CLEAR     75  45  34 NE8       30.15R
CHADRON        PTCLDY    80  49  33 NE7       30.11S
KIMBALL        CLEAR     71  49  45 E6        30.19S
SIDNEY         CLEAR     74  38  27 NE7       30.18R
$$

NEZ057>060-069>072-079>082-010300-
SOUTHWEST NEBRASKA

CITY           SKY/WX    TMP DP  RH WIND       PRES   REMARKS
NORTH PLATTE   CLEAR     75  51  43 NE6       30.07R
IMPERIAL       CLEAR     77  59  53 N3        30.10R
LEXINGTON      CLEAR     74  56  53 NE7       30.05R
MCCOOK         MOCLDY    79  55  43 N6        30.06R
OGALLALA       CLEAR     74  49  40 NE6       30.10S
$$

NEZ005>010-023>029-035>040-094-010300-
NORTH CENTRAL NEBRASKA

CITY           SKY/WX    TMP DP  RH WIND       PRES   REMARKS
VALENTINE      CLEAR     80  52  37 NE5       30.06S
AINSWORTH      CLEAR     72  59  62 E6        30.07R
BROKEN BOW     CLEAR     73  58  59 NE7       30.06R
O`NEILL        CLEAR     73  65  75 E9        30.06S
ORD            CLEAR     73  61  65 NE6       30.04R
THEDFORD       CLEAR     77  52  41 CALM      30.09S
$$

NEZ041-046>049-061>064-073>077-083>087-010300-
SOUTH CENTRAL NEBRASKA

CITY           SKY/WX    TMP DP  RH WIND       PRES   REMARKS
GRAND ISLAND   CLEAR     77  60  55 N7        30.01R
AURORA         CLEAR     75  66  73 CALM      30.01R
HASTINGS       CLEAR     78  56  46 S5        30.02R
HEBRON         PTCLDY    74  56  51 S6        30.00R
HOLDREGE       CLEAR     73  59  63 CALM      30.04R
KEARNEY *      CLEAR     73  55  53 N9        30.04R
YORK           PTCLDY    72  68  88 E3        30.00R
$$

NEZ011>018-030>034-042>045-010300-
NORTHEAST NEBRASKA

CITY           SKY/WX    TMP DP  RH WIND       PRES   REMARKS
NORFOLK        PTCLDY    72  61  68 E6        30.04R
ALBION         CLEAR     69  62  77 NE8       30.04R
BLAIR          MOCLDY    71  60  67 NE8       30.03R
COLUMBUS *     PTCLDY    70  59  68 E9        30.02R
FREMONT        LGT RAIN  73  66  78 CALM      30.03R
TEKAMAH        PTCLDY    71  60  68 E5        30.02S
WAYNE          PTCLDY    69  63  81 SE5       30.04S
$$

NEZ050>053-065>068-078-088>093-010300-
SOUTHEAST NEBRASKA

CITY           SKY/WX    TMP DP  RH WIND       PRES   REMARKS
LINCOLN        CLOUDY    80  54  40 SE12      29.99S
OMAHA EPPLEY   MOCLDY    75  58  55 E8        30.01R
BEATRICE       CLOUDY    79  57  47 SE3       30.00R
FALLS CITY     MOCLDY    71  59  65 SE6       30.01F
NEBRASKA CITY  CLOUDY    74  58  55 SE7       30.02R
PLATTSMOUTH    CLOUDY    75  57  53 SE7       30.01S
$$

NEZ044-045-051>053-067-010300-
OMAHA AREA

CITY           SKY/WX    TMP DP  RH WIND       PRES   REMARKS
OMAHA EPPLEY   MOCLDY    75  58  55 E8        30.01R
BLAIR          MOCLDY    71  60  67 NE8       30.03R
FREMONT        LGT RAIN  73  66  78 CALM      30.03R
MILLARD        CLOUDY    77  60  55 SE5       30.01S
OFFUTT AFB     CLOUDY    74  62  67 E5        30.01R
PLATTSMOUTH    CLOUDY    75  57  53 SE7       30.01S
WAHOO          CLOUDY    70  63  78 SE10      30.02R
$$



USA.gov is the U.S. government's official web portal to all federal, state and local government web resources and services.